N0HOT Weather Reports


Display with metric or nautical units.
time (UTC)temp
F
wind
direction
speed
MPH
gust
MPH
rain 1hr
in
rain 24hr
in
rain mn
in
humidity
%
barometer
mb
20260504004326 70 177 2.0 3.0 0.00 0.00 0.00 22 1003.5
20260504003821 70 240 2.0 4.0 0.00 0.00 0.00 21 1003.8
20260504003319 71 173 2.0 3.0 0.00 0.00 0.00 22 1003.8
20260504002815 71 199 1.0 2.0 0.00 0.00 0.00 22 1003.8
20260504002312 71 179 3.0 3.0 0.00 0.00 0.00 21 1003.5
20260504001810 71 212 4.0 7.0 0.00 0.00 0.00 22 1003.5
20260504001307 71 190 4.0 4.0 0.00 0.00 0.00 22 1003.5
20260504000804 72 140 2.0 3.0 0.00 0.00 0.00 21 1003.8
20260504000301 72 195 2.0 3.0 0.00 0.00 0.00 21 1003.5
20260503235759 72 217 4.0 7.0 0.00 0.00 0.00 20 1003.5
20260503235256 72 261 6.0 7.0 0.00 0.00 0.00 20 1003.5
20260503234753 73 277 2.0 2.0 0.00 0.00 0.00 22 1003.8
20260503234251 73 189 4.0 4.0 0.00 0.00 0.00 22 1003.5
20260503233748 73 200 2.0 3.0 0.00 0.00 0.00 22 1003.5
20260503233244 73 224 2.0 3.0 0.00 0.00 0.00 23 1003.5
20260503232741 73 150 5.0 7.0 0.00 0.00 0.00 23 1003.5
20260503232238 74 244 2.0 3.0 0.00 0.00 0.00 24 1003.5
20260503231736 74 107 2.0 3.0 0.00 0.00 0.00 25 1003.5
20260503231232 74 43 0.0 0.0 0.00 0.00 0.00 23 1003.5
20260503230723 74 212 1.0 2.0 0.00 0.00 0.00 24 1003.5
20260503230221 74 153 4.0 4.0 0.00 0.00 0.00 23 1003.5
20260503225717 74 190 2.0 2.0 0.00 0.00 0.00 22 1003.5
20260503225218 75 219 4.0 4.0 0.00 0.00 0.00 21 1003.5
20260503224715 75 186 2.0 3.0 0.00 0.00 0.00 21 1003.2
20260503224213 75 205 2.0 3.0 0.00 0.00 0.00 22 1003.2
20260503223710 75 215 5.0 6.0 0.00 0.00 0.00 20 1003.2
20260503223207 75 138 3.0 4.0 0.00 0.00 0.00 20 1003.2
20260503222704 75 206 3.0 3.0 0.00 0.00 0.00 21 1003.2
20260503222201 75 189 4.0 7.0 0.00 0.00 0.00 22 1003.5
20260503221700 75 175 5.0 6.0 0.00 0.00 0.00 20 1003.2
20260503221157 75 191 3.0 4.0 0.00 0.00 0.00 21 1003.2
20260503220654 75 187 5.0 7.0 0.00 0.00 0.00 19 1003.2
20260503220150 75 159 5.0 9.0 0.00 0.00 0.00 20 1003.5
20260503215647 75 317 2.0 7.0 0.00 0.00 0.00 21 1003.5
20260503215143 75 147 4.0 6.0 0.00 0.00 0.00 21 1003.5
20260503214642 75 200 6.0 8.0 0.00 0.00 0.00 20 1003.2
20260503214138 76 357 7.0 9.0 0.00 0.00 0.00 20 1003.5
20260503213632 76 169 3.0 4.0 0.00 0.00 0.00 21 1003.2
20260503213128 76 187 4.0 6.0 0.00 0.00 0.00 19 1003.5
20260503212626 76 186 9.0 10.0 0.00 0.00 0.00 19 1003.2
20260503212123 77 189 4.0 7.0 0.00 0.00 0.00 20 1003.5
20260503211621 77 248 6.0 8.0 0.00 0.00 0.00 20 1003.5
20260503211116 76 260 5.0 7.0 0.00 0.00 0.00 19 1003.5
20260503210613 76 148 1.0 1.0 0.00 0.00 0.00 21 1003.5
20260503210109 76 149 4.0 4.0 0.00 0.00 0.00 19 1003.5
20260503205605 76 166 5.0 6.0 0.00 0.00 0.00 19 1003.5
20260503205101 76 169 4.0 6.0 0.00 0.00 0.00 20 1003.5
20260503204558 76 193 4.0 6.0 0.00 0.00 0.00 19 1003.8
20260503204055 76 197 4.0 6.0 0.00 0.00 0.00 22 1003.8
20260503203552 76 212 4.0 6.0 0.00 0.00 0.00 22 1003.8
20260503203050 76 265 4.0 4.0 0.00 0.00 0.00 20 1003.5
20260503202548 76 186 4.0 4.0 0.00 0.00 0.00 24 1003.8
20260503202045 76 238 6.0 7.0 0.00 0.00 0.00 22 1004.2
20260503201543 76 203 1.0 3.0 0.00 0.00 0.00 26 1004.2
20260503201040 76 186 3.0 4.0 0.00 0.00 0.00 23 1003.8
20260503200536 76 191 2.0 3.0 0.00 0.00 0.00 24 1003.5
20260503200033 76 159 2.0 3.0 0.00 0.00 0.00 25 1003.5
20260503195530 76 171 2.0 2.0 0.00 0.00 0.00 25 1003.8
20260503195027 76 209 4.0 6.0 0.00 0.00 0.00 23 1003.8
20260503194525 76 254 3.0 4.0 0.00 0.00 0.00 23 1004.2
20260503194024 76 231 2.0 3.0 0.00 0.00 0.00 26 1003.8
20260503193521 76 262 4.0 4.0 0.00 0.00 0.00 24 1004.2
20260503193016 76 174 7.0 8.0 0.00 0.00 0.00 24 1003.5
20260503192512 76 211 4.0 4.0 0.00 0.00 0.00 24 1003.8
20260503192008 76 176 3.0 3.0 0.00 0.00 0.00 24 1003.8
20260503191506 76 218 5.0 8.0 0.00 0.00 0.00 24 1003.8
20260503191002 76 169 5.0 7.0 0.00 0.00 0.00 24 1003.8
20260503190459 77 195 5.0 8.0 0.00 0.00 0.00 25 1004.2
20260503185956 77 251 6.0 6.0 0.00 0.00 0.00 24 1004.2
20260503185452 77 248 5.0 7.0 0.00 0.00 0.00 24 1004.2
20260503184952 76 184 5.0 6.0 0.00 0.00 0.00 27 1004.2
20260503184449 76 133 6.0 8.0 0.00 0.00 0.00 24 1004.2
20260503183945 75 198 4.0 4.0 0.00 0.00 0.00 25 1004.2
20260503183442 75 224 1.0 2.0 0.00 0.00 0.00 25 1004.2
20260503182938 75 161 1.0 2.0 0.00 0.00 0.00 25 1004.5
20260503182437 75 242 2.0 2.0 0.00 0.00 0.00 25 1004.5
20260503181935 74 185 4.0 7.0 0.00 0.00 0.00 25 1004.5
20260503181432 74 191 3.0 3.0 0.00 0.00 0.00 28 1004.8
20260503180927 75 106 3.0 3.0 0.00 0.00 0.00 26 1004.5
20260503180427 75 158 1.0 2.0 0.00 0.00 0.00 26 1004.8
20260503175922 75 149 2.0 4.0 0.00 0.00 0.00 27 1004.8
20260503175421 75 199 3.0 3.0 0.00 0.00 0.00 26 1004.8
20260503174916 75 198 3.0 3.0 0.00 0.00 0.00 28 1004.8
20260503174415 75 141 4.0 6.0 0.00 0.00 0.00 26 1004.8
20260503173909 74 164 5.0 6.0 0.00 0.00 0.00 25 1004.8
20260503173406 74 206 2.0 2.0 0.00 0.00 0.00 26 1004.8
20260503172903 74 82 0.0 1.0 0.00 0.00 0.00 25 1004.8
20260503172400 74 180 3.0 3.0 0.00 0.00 0.00 26 1004.8
20260503171856 74 112 2.0 3.0 0.00 0.00 0.00 27 1004.8
20260503171353 74 149 1.0 2.0 0.00 0.00 0.00 27 1004.8
20260503170850 74 237 3.0 4.0 0.00 0.00 0.00 27 1005.6
20260503170346 73 188 1.0 1.0 0.00 0.00 0.00 28 1005.3
20260503150739 64 195 1.0 2.0 0.00 0.00 0.00 33 1006.3
20260503150235 64 173 3.0 3.0 0.00 0.00 0.00 33 1006.3
20260503140159 61 179 3.0 4.0 0.00 0.00 0.00 37 1006.6
20260503131129 57 354 2.0 3.0 0.00 0.00 0.00 42 1007.3
20260503130626 57 178 3.0 6.0 0.00 0.00 0.00 43 1007.0
20260503130124 57 147 2.0 4.0 0.00 0.00 0.00 43 1007.3
20260503110510 55 86 2.0 3.0 0.00 0.00 0.00 46 1007.3
20260503090402 55 175 1.0 1.0 0.00 0.00 0.00 44 1009.4
20260503081329 54 144 3.0 4.0 0.00 0.00 0.00 40 1009.8
20260503080825 54 180 3.0 3.0 0.00 0.00 0.00 41 1009.8
20260503080317 54 198 2.0 2.0 0.00 0.00 0.00 43 1009.8
20260503072753 55 186 3.0 3.0 0.00 0.00 0.00 37 1009.8
20260503072250 55 228 3.0 4.0 0.00 0.00 0.00 37 1009.8
20260503071746 55 186 3.0 4.0 0.00 0.00 0.00 38 1010.1
20260503071244 55 187 4.0 4.0 0.00 0.00 0.00 38 1010.5
20260503070740 55 190 4.0 4.0 0.00 0.00 0.00 37 1010.5
20260503070238 55 188 3.0 3.0 0.00 0.00 0.00 36 1010.5
20260503060157 55 202 3.0 3.0 0.00 0.00 0.00 37 1011.1
20260503054644 54 187 4.0 6.0 0.00 0.00 0.00 38 1010.8
20260503054141 54 174 4.0 6.0 0.00 0.00 0.00 38 1011.1
20260503053639 54 188 4.0 6.0 0.00 0.00 0.00 37 1011.1
20260503053138 53 177 5.0 6.0 0.00 0.00 0.00 38 1011.1
20260503052634 53 153 3.0 4.0 0.00 0.00 0.00 40 1011.1
20260503052130 53 188 3.0 3.0 0.00 0.00 0.00 41 1010.8
20260503051625 53 172 2.0 3.0 0.00 0.00 0.00 42 1011.1
20260503051124 53 187 2.0 3.0 0.00 0.00 0.00 43 1011.1
20260503050620 53 201 1.0 2.0 0.00 0.00 0.00 41 1011.5
20260503050116 53 199 2.0 3.0 0.00 0.00 0.00 43 1011.5
20260503045614 53 187 2.0 2.0 0.00 0.00 0.00 42 1011.5
20260503045111 53 189 1.0 2.0 0.00 0.00 0.00 42 1011.1
20260503044608 53 213 1.0 1.0 0.00 0.00 0.00 43 1011.1
20260503044105 54 210 2.0 2.0 0.00 0.00 0.00 41 1011.5
20260503043601 54 219 1.0 1.0 0.00 0.00 0.00 43 1011.5
20260503043058 54 203 2.0 2.0 0.00 0.00 0.00 42 1011.5
20260503042555 54 185 1.0 2.0 0.00 0.00 0.00 42 1011.1
20260503042051 54 204 2.0 3.0 0.00 0.00 0.00 41 1011.5
20260503041548 54 201 2.0 2.0 0.00 0.00 0.00 41 1011.1
20260503041046 54 212 1.0 1.0 0.00 0.00 0.00 41 1011.5
20260503040543 54 220 1.0 1.0 0.00 0.00 0.00 41 1011.5
20260503040040 55 206 1.0 1.0 0.00 0.00 0.00 41 1011.5
20260503035537 55 201 0.0 0.0 0.00 0.00 0.00 41 1011.8
20260503035035 55 212 1.0 2.0 0.00 0.00 0.00 40 1011.8
20260503034531 55 237 0.0 0.0 0.00 0.00 0.00 38 1011.8
20260503034029 56 226 0.0 0.0 0.00 0.00 0.00 38 1011.8
20260503033526 56 213 1.0 1.0 0.00 0.00 0.00 37 1011.8
20260503033023 56 215 0.0 1.0 0.00 0.00 0.00 37 1011.8
20260503032522 57 214 1.0 1.0 0.00 0.00 0.00 36 1012.2
20260503032019 57 222 1.0 1.0 0.00 0.00 0.00 37 1012.2
20260503031517 57 232 0.0 0.0 0.00 0.00 0.00 34 1012.2
20260503031014 57 185 2.0 2.0 0.00 0.00 0.00 34 1012.2
20260503030510 57 214 1.0 1.0 0.00 0.00 0.00 34 1012.2
20260503030008 57 212 1.0 1.0 0.00 0.00 0.00 34 1012.2
20260503025504 58 189 2.0 2.0 0.00 0.00 0.00 34 1012.5
20260503025002 58 209 2.0 2.0 0.00 0.00 0.00 33 1012.5
20260503024457 58 201 1.0 1.0 0.00 0.00 0.00 34 1012.5
20260503023955 58 229 1.0 1.0 0.00 0.00 0.00 32 1012.5
20260503023452 58 235 2.0 2.0 0.00 0.00 0.00 32 1012.2
20260503022949 58 214 1.0 1.0 0.00 0.00 0.00 32 1012.2
20260503022444 58 227 2.0 2.0 0.00 0.00 0.00 32 1012.2
20260503021940 58 218 1.0 1.0 0.00 0.00 0.00 31 1012.2
20260503021436 58 216 1.0 1.0 0.00 0.00 0.00 32 1012.2
20260503020934 59 205 1.0 1.0 0.00 0.00 0.00 32 1012.2
20260503020432 59 227 1.0 1.0 0.00 0.00 0.00 31 1012.2
20260503015928 59 212 1.0 2.0 0.00 0.00 0.00 31 1012.5
20260503015425 59 208 1.0 2.0 0.00 0.00 0.00 31 1012.2
20260503014920 59 199 2.0 2.0 0.00 0.00 0.00 32 1012.2
20260503014418 60 217 1.0 2.0 0.00 0.00 0.00 31 1012.2
20260503013916 60 207 2.0 2.0 0.00 0.00 0.00 32 1012.2
20260503013413 60 196 2.0 2.0 0.00 0.00 0.00 30 1012.2
20260503012910 60 190 1.0 2.0 0.00 0.00 0.00 29 1011.8
20260503012408 60 198 2.0 2.0 0.00 0.00 0.00 29 1011.8
20260503011904 60 194 2.0 3.0 0.00 0.00 0.00 29 1012.2
20260503011400 61 202 2.0 2.0 0.00 0.00 0.00 29 1012.2
20260503010857 61 202 2.0 2.0 0.00 0.00 0.00 29 1012.2
20260503010354 61 173 2.0 3.0 0.00 0.00 0.00 28 1011.8
20260503005851 61 189 2.0 2.0 0.00 0.00 0.00 29 1012.2
20260503005349 61 194 1.0 1.0 0.00 0.00 0.00 28 1012.2
20260503004845 62 198 1.0 2.0 0.00 0.00 0.00 28 1012.2